Theta_e
316 318 317 315 315 315 316 315 316 317 317 320 322 324 316 315 314 319 321 325 326 327 326 325 323 323 322 320 319 316 313 312 312 312 311 311 312 312 310 309 307 307 306 305
317 317 316 314 315 316 316 315 316 317 315 317 319 320 320 318 317 316 317 318 322 323 322 316 317 319 320 319 318 315 313 312 312 312 311 311 312 312 311 308 307 306 305 304
317 316 314 314 315 316 315 316 315 316 316 315 316 317 317 317 317 316 316 317 316 318 314 314 316 317 319 319 317 315 313 312 312 311 311 310 311 311 310 308 307 306 304 302
316 314 314 314 315 315 314 314 314 316 316 315 314 315 317 317 315 314 314 314 314 314 313 314 315 317 318 317 315 314 313 312 311 311 311 311 311 311 310 309 307 306 304 303
317 315 314 315 315 313 316 313 315 316 317 316 315 319 316 315 314 314 314 314 313 313 312 314 315 316 316 315 314 313 312 311 309 310 310 310 309 308 308 307 306 305 304 303
314 312 314 314 313 313 312 313 314 316 318 325 317 320 319 316 315 315 314 315 314 312 311 313 314 315 314 313 313 312 311 310 308 308 307 308 308 308 307 306 306 305 305 304
314 314 313 312 315 313 313 317 324 325 327 320 314 316 316 315 315 316 315 315 312 311 312 314 314 314 313 312 312 312 311 309 308 308 307 307 307 307 307 306 306 305 305 304
318 320 314 312 314 316 315 317 325 317 317 317 312 316 318 314 312 313 313 314 313 313 313 314 314 313 312 312 312 310 310 309 308 307 307 306 306 306 305 305 305 305 304 304
314 316 312 312 311 312 315 314 312 315 312 316 316 315 314 311 312 313 313 313 314 314 314 314 313 313 313 312 312 311 310 309 308 307 307 306 306 305 305 305 304 304 304 303
311 313 312 312 311 309 309 309 314 318 317 314 316 314 325 313 312 314 314 314 313 313 312 311 310 310 310 311 311 310 310 309 308 307 306 306 305 304 304 304 304 304 303 303
311 311 314 312 314 314 311 311 311 310 312 315 314 318 310 316 312 314 315 314 312 311 309 308 307 306 306 306 307 307 307 307 307 306 305 305 304 303 303 303 303 303 303 302
309 311 314 313 309 309 310 311 311 313 313 311 311 315 309 310 311 313 313 311 310 308 307 306 305 305 305 305 306 306 306 306 306 305 304 304 303 302 302 302 301 300 300 299
308 310 312 310 308 307 311 312 310 309 311 313 312 312 307 310 311 312 311 309 308 307 306 305 305 304 304 303 303 304 304 303 303 303 302 301 300 300 299 298 298 297 297 297
305 308 309 312 309 311 311 311 311 310 316 311 311 311 309 310 311 310 310 309 307 306 305 305 304 303 302 302 302 301 301 300 300 300 299 298 297 296 296 295 294 293 293 293
306 308 308 306 306 307 308 310 311 311 311 312 312 311 310 309 311 310 309 308 307 305 305 304 303 301 299 298 297 296 295 294 293 293 292 292 292 292 291 291 291 291 290 290
305 307 306 305 305 304 304 306 308 310 309 310 311 310 308 305 306 309 308 307 306 305 304 302 299 298 296 295 294 293 292 292 292 292 291 291 291 291 291 291 290 290 290 290
305 306 306 307 310 312 314 313 309 306 307 308 309 308 307 306 305 306 307 306 306 304 302 300 299 297 295 294 293 293 292 291 291 291 291 291 291 291 290 290 290 290 290 290
306 305 307 311 313 316 314 310 310 312 308 307 306 306 306 306 305 305 306 306 305 303 301 300 299 297 294 292 292 291 291 291 291 290 290 290 290 290 290 290 290 290 290 290
305 307 311 314 315 314 313 309 309 310 312 309 308 306 305 305 305 304 305 305 304 303 301 300 299 296 293 292 291 291 291 291 290 290 290 289 289 289 288 288 288 288 288 288
305 305 310 312 314 314 311 307 306 308 312 308 307 307 306 306 310 308 303 303 303 302 300 299 297 295 293 291 290 290 290 290 290 290 289 288 287 287 287 287 287 287 287 287
309 309 310 312 313 313 308 305 305 312 312 306 307 307 306 308 305 304 302 301 301 300 299 297 295 293 291 290 290 290 290 290 289 288 287 287 287 287 286 286 286 287 287 287
312 312 312 312 313 314 306 305 310 309 306 306 305 304 305 303 302 301 301 301 300 298 296 294 292 291 290 289 289 289 288 288 287 287 287 286 286 286 286 286 286 286 286 286
310 310 312 311 312 307 306 306 306 307 307 306 306 304 304 303 302 301 301 299 298 295 291 290 291 290 289 288 287 287 287 287 286 286 286 286 286 286 286 286 286 286 286 286
308 307 308 309 309 306 306 305 306 305 306 305 305 304 304 303 302 301 299 298 293 291 291 290 289 289 288 287 287 287 286 286 286 285 285 285 285 286 285 285 285 285 285 285
308 307 308 309 308 306 306 306 306 305 304 304 304 303 303 302 301 300 300 295 292 291 289 288 288 287 287 287 286 286 285 285 285 285 285 285 285 285 285 285 285 285 285 285
307 308 308 310 307 308 307 306 305 304 304 303 303 302 302 301 300 297 294 292 290 289 287 287 287 287 287 286 286 285 285 284 284 284 284 284 284 284 284 284 284 284 285 285
Wind_Speed
8 6 11 14 14 12 9 19 15 14 4 9 12 12 8 7 6 10 11 12 13 13 15 15 13 13 13 13 14 14 12 11 8 7 6 5 5 3 2 1 2 2 3 4
5 8 13 2 7 9 9 16 13 4 3 8 15 14 11 12 12 12 11 12 13 13 13 12 13 14 14 15 14 14 12 10 8 6 5 3 4 3 3 2 1 2 2 4
7 2 1 4 9 12 8 13 15 6 8 5 2 13 15 13 13 12 13 12 13 15 14 12 14 14 14 14 14 13 11 9 7 6 5 4 4 3 3 2 2 0 2 3
6 3 4 8 11 12 12 10 9 7 11 10 8 8 18 17 13 13 12 12 11 12 12 12 14 14 14 14 12 11 10 8 7 6 5 6 4 3 2 2 3 1 0 1
0 2 5 8 1 1 3 2 5 6 11 3 6 5 8 5 11 14 11 11 10 11 11 12 13 14 13 13 12 10 9 8 6 5 5 4 3 2 2 2 2 2 2 1
2 1 2 6 1 0 2 4 5 3 3 4 6 6 9 8 6 9 6 9 7 8 9 11 12 13 13 11 10 9 8 6 5 5 4 3 2 3 2 3 3 3 3 3
3 2 2 2 4 4 1 9 3 4 3 4 1 3 7 6 5 6 6 8 6 7 9 10 11 13 13 11 9 7 7 6 6 5 4 3 3 3 3 3 4 4 4 3
3 3 2 2 4 2 6 4 4 4 6 8 3 7 3 6 6 6 5 7 8 9 9 10 12 11 10 9 8 7 7 6 6 5 5 3 2 2 3 3 3 3 4 4
3 4 3 2 2 2 4 6 3 4 0 4 6 6 6 6 6 6 8 9 10 10 10 9 9 8 8 8 8 7 7 6 6 6 5 4 4 3 3 4 4 5 5 5
2 3 0 3 2 3 3 6 5 3 3 5 5 5 2 6 7 7 9 10 10 9 9 8 8 7 6 6 6 6 6 6 6 6 5 5 4 4 4 4 4 5 5 6
5 4 3 3 6 4 4 4 5 3 3 4 4 3 3 4 5 9 9 10 10 10 8 7 7 6 5 5 4 4 4 4 4 4 4 3 2 2 2 3 4 5 5 6
1 4 3 0 4 1 3 4 5 4 5 1 4 2 2 5 5 9 10 10 10 9 8 8 9 9 9 7 6 5 5 5 4 4 3 3 2 1 1 2 3 4 5 6
1 3 2 2 2 3 6 10 6 2 2 5 5 2 2 6 7 8 11 10 10 10 9 9 10 11 11 11 11 10 9 8 7 6 6 5 5 4 4 4 4 5 6 7
4 3 7 4 3 1 4 9 12 10 5 9 11 8 8 8 9 9 10 10 10 9 9 9 9 11 12 12 13 13 12 11 10 10 9 8 7 6 5 5 6 7 8 10
2 5 4 9 8 5 7 8 13 16 17 8 8 9 3 7 9 11 10 11 11 10 9 9 9 10 11 11 11 11 11 10 9 9 8 7 6 6 7 8 9 10 11 12
3 3 2 5 2 7 12 13 14 17 17 19 17 18 4 6 2 9 11 12 11 11 10 9 9 10 10 9 9 8 8 7 7 6 6 5 6 8 9 11 13 14 16 17
3 3 2 4 1 6 11 17 18 11 8 12 11 5 7 5 4 6 9 11 11 11 11 10 9 10 9 8 7 6 5 4 4 4 5 7 9 11 13 15 17 18 20 21
4 5 3 4 3 5 2 3 4 13 9 12 5 2 4 5 4 2 7 11 11 12 11 10 11 10 8 7 5 4 2 2 3 5 8 10 12 15 16 18 19 21 22 24
6 6 4 4 6 13 14 3 3 6 3 8 9 7 4 6 7 5 7 9 10 11 12 12 11 9 8 6 4 1 2 4 5 7 10 12 15 17 19 20 22 23 25 26
5 6 5 3 4 5 3 4 1 2 5 7 7 8 8 9 6 5 9 8 10 13 12 12 10 8 6 4 2 2 4 6 8 10 13 16 17 19 21 22 24 25 26 28
4 6 12 11 7 7 6 7 3 3 1 6 6 8 9 4 3 10 10 9 12 13 12 11 9 6 6 3 1 4 7 9 11 14 16 18 19 20 21 22 22 25 26 27
7 6 5 6 5 10 8 4 4 4 5 7 6 6 7 6 7 9 10 10 12 12 10 8 8 7 4 2 4 6 9 10 12 15 17 19 20 20 21 21 22 24 25 25
4 6 2 6 3 2 7 2 3 2 6 4 5 5 7 8 8 9 9 10 11 11 9 6 5 3 1 2 4 9 11 12 14 16 18 20 20 20 19 20 20 21 22 23
5 5 4 2 6 8 7 5 4 4 4 6 3 7 8 8 9 10 10 9 10 11 8 5 1 1 3 5 8 10 12 13 15 17 19 19 20 20 19 19 19 19 20 21
6 7 7 9 8 1 6 10 9 8 5 6 6 6 8 9 9 9 8 8 10 9 6 3 0 3 7 9 11 12 13 14 16 17 18 18 17 19 22 21 20 20 21 21
8 13 7 8 6 5 4 12 9 10 8 8 9 9 8 9 9 11 9 9 8 6 3 1 3 6 8 10 12 13 13 14 16 18 18 18 20 19 20 21 24 21 23 25
Wind_Direction
202 215 214 206 213 228 284 213 221 195 143 217 210 223 185 184 182 211 202 198 197 195 183 185 187 185 184 182 177 174 169 170 166 170 171 181 187 175 146 114 74 56 32 24
180 233 228 309 234 246 280 220 212 108 107 224 214 232 221 199 211 207 206 206 202 192 176 176 181 182 183 179 177 176 174 173 172 174 180 175 184 192 192 175 97 65 39 28
213 171 114 254 213 218 237 230 215 221 172 232 254 245 226 222 225 215 231 226 207 196 183 183 181 183 181 179 179 177 172 168 171 171 168 163 176 179 195 200 194 89 46 22
267 65 230 235 223 209 219 235 298 162 187 216 202 248 218 203 205 211 215 212 216 195 184 175 178 177 178 175 169 168 166 164 169 175 183 197 219 229 199 191 191 196 189 350
199 247 221 230 166 222 5 291 203 205 217 228 188 240 244 110 220 215 210 197 196 187 183 168 176 169 165 155 161 162 163 165 168 179 193 206 227 219 186 189 189 204 225 249
336 125 330 7 35 158 111 174 151 172 243 236 176 230 241 180 228 152 169 168 173 173 172 161 162 156 152 154 156 160 164 164 168 173 179 188 202 209 209 210 218 221 224 235
181 138 103 288 200 122 248 190 153 196 203 229 157 221 259 91 113 135 144 141 147 155 165 151 154 159 157 160 157 160 171 173 177 178 181 188 198 207 228 234 235 233 243 251
200 214 200 359 346 58 204 250 279 203 201 200 144 223 216 71 104 114 101 114 124 135 143 155 151 153 156 157 163 170 177 181 187 192 196 199 207 214 230 236 243 246 251 250
243 173 145 45 352 328 136 222 3 305 285 227 177 236 152 140 132 127 114 129 130 128 132 133 136 143 150 162 172 178 180 187 195 199 200 205 209 216 226 234 234 238 245 252
331 249 115 111 213 163 252 334 238 210 244 224 180 244 248 188 173 136 139 134 126 120 119 121 124 135 145 155 165 175 186 195 198 199 203 205 209 218 231 243 255 263 269 271
290 264 116 195 200 217 185 232 237 290 289 298 239 157 24 132 166 161 141 136 141 138 133 127 122 121 132 146 161 172 180 183 179 184 184 188 194 218 235 253 270 283 290 293
69 312 249 229 83 25 275 275 276 257 221 268 301 317 114 107 128 140 141 142 135 134 129 118 111 103 97 100 108 113 122 121 122 130 134 123 108 75 14 330 324 313 302 296
95 222 245 177 188 198 230 208 235 232 326 254 278 221 155 138 142 149 153 153 149 141 134 122 111 101 95 91 91 92 92 93 94 100 99 89 73 61 42 19 357 339 327 314
327 280 259 295 12 73 203 208 214 211 218 241 232 263 170 174 170 167 160 159 151 145 139 123 115 105 99 96 94 92 88 86 85 83 81 74 61 46 27 3 345 332 324 315
258 278 309 292 284 239 258 227 205 211 226 232 242 254 313 172 184 177 164 157 154 154 150 140 130 119 112 106 100 93 87 84 82 77 67 53 34 12 353 338 326 315 308 301
188 270 307 275 242 251 261 250 236 228 238 246 258 267 232 135 61 158 171 169 171 164 153 141 135 129 121 113 106 102 93 80 72 63 47 18 350 333 322 314 309 305 300 295
232 253 246 264 260 281 266 244 230 227 231 242 237 292 123 131 177 191 177 180 174 165 159 154 149 139 130 123 122 111 99 79 48 14 346 329 319 312 306 302 298 294 293 292
256 237 276 289 298 250 66 76 344 231 232 229 233 149 99 104 105 160 169 179 170 165 161 156 149 144 140 133 120 113 80 17 344 330 321 315 312 308 307 306 301 298 295 292
224 249 260 250 242 292 278 192 186 194 233 212 225 189 159 140 140 124 163 171 165 161 160 158 156 150 145 142 126 67 344 337 322 317 316 315 314 312 310 306 304 301 299 296
228 251 245 169 256 263 66 131 143 178 245 166 188 177 171 162 194 127 164 156 148 152 148 147 145 139 138 114 73 337 323 325 323 323 316 315 312 308 304 303 302 301 298 295
177 210 227 238 253 279 112 139 170 212 80 144 157 152 154 170 42 120 141 143 146 147 146 137 135 133 122 125 17 329 328 326 322 315 309 305 304 303 301 302 304 303 302 301
196 195 202 212 234 256 142 126 221 91 113 141 147 153 152 118 125 138 144 142 141 134 127 131 135 130 124 49 345 323 315 312 306 305 303 303 305 305 304 303 304 305 307 306
241 229 269 222 237 95 188 299 85 143 152 157 153 158 161 145 144 146 143 144 134 132 126 124 129 121 97 332 322 308 307 309 307 306 305 306 306 306 308 310 310 309 307 304
223 217 240 319 221 222 202 186 178 175 156 148 158 164 169 163 158 155 152 134 139 139 140 141 143 296 306 312 309 304 310 309 308 307 308 309 310 312 312 313 308 305 306 309
255 155 234 251 267 310 236 212 191 173 152 148 145 156 166 158 158 156 148 148 144 141 140 137 326 321 315 314 309 310 311 312 309 308 309 311 312 313 312 308 305 304 302 305
202 229 226 254 328 227 307 200 179 175 177 165 153 144 142 149 142 142 139 140 141 137 121 23 329 310 304 303 304 310 311 311 312 312 313 313 313 312 309 308 309 304 301 303